SPOC

Last updated on Sat Jun 25 2022 00:02:05 GMT+0000 (Coordinated Universal Time)

1 46921U 98067RR 22175.44526769 .05489333 12350-4 66926-3 0 9994 2 46921 51.6130 248.2954 0008877 320.6564 39.3814 16.35363181 93131

Satellite not in orbit